Back to catalog

STARLINK-30976

AliveCommunicationsVLEO
NORAD 58447·PAYLOAD·🇺🇸 United States

Launched Nov 28, 2023 from Cape Canaveral Space Force Station

Loading…

Next Passes (next 24 hours)

TLE

FreshSource: CelesTrak SupGP

Epoch: Sep 14, 2026, 13:48 UTC

1 58447C 23183L   26257.57548611 -.00014912  00000+0 -54007-3 0  2578
2 58447  43.0010  54.8853 0001684 267.6099  45.3665 15.27587839    14

Track STARLINK-30976 in real time with AllMySat

Download on the App Store